Time,TemperatureF,DewpointF,PressureIn,WindDirection,WindDirectionDegrees,WindSpeedMPH,WindSpeedGustMPH,Humidity,HourlyPrecipIn,Conditions,Clouds,dailyrainin,SoftwareType,DateUTC
2013-06-16 00:02:00,68.0,66.0,-100.00,SE,145,6.0,7.0,91,-99.99,,,-99.99,,2013-06-16 04:02:00,
2013-06-16 00:12:00,68.0,66.0,-100.00,SE,145,6.0,7.0,90,-99.99,,,-99.99,,2013-06-16 04:12:00,
2013-06-16 00:23:00,69.0,65.0,-100.00,SE,140,7.0,9.0,90,-99.99,,,-99.99,,2013-06-16 04:23:00,
2013-06-16 00:34:00,69.0,65.0,-100.00,SE,140,8.0,11.0,87,-99.99,,,-99.99,,2013-06-16 04:34:00,
2013-06-16 00:42:00,69.0,64.0,-100.00,SE,125,8.0,11.0,85,-99.99,,,-99.99,,2013-06-16 04:42:00,
2013-06-16 00:53:00,69.0,64.0,-100.00,SE,125,7.0,12.0,82,-99.99,,,-99.99,,2013-06-16 04:53:00,
2013-06-16 01:02:00,69.0,63.0,-100.00,SE,125,7.0,9.0,82,-99.99,,,-99.99,,2013-06-16 05:02:00,
2013-06-16 01:12:00,69.0,63.0,-100.00,SE,130,6.0,9.0,80,-99.99,,,-99.99,,2013-06-16 05:12:00,
2013-06-16 01:22:00,69.0,63.0,-100.00,ESE,120,6.0,9.0,81,-99.99,,,-99.99,,2013-06-16 05:22:00,
2013-06-16 01:34:00,69.0,63.0,-100.00,ESE,120,6.0,11.0,81,-99.99,,,-99.99,,2013-06-16 05:34:00,
2013-06-16 01:43:00,69.0,63.0,-100.00,SE,125,6.0,8.0,81,-99.99,,,-99.99,,2013-06-16 05:43:00,
2013-06-16 01:52:00,69.0,64.0,-100.00,ESE,120,6.0,9.0,82,-99.99,,,-99.99,,2013-06-16 05:52:00,
2013-06-16 02:01:00,69.0,64.0,-100.00,SE,140,4.0,7.0,83,-99.99,,,-99.99,,2013-06-16 06:01:00,
2013-06-16 02:11:00,69.0,64.0,-100.00,SE,145,6.0,9.0,84,-99.99,,,-99.99,,2013-06-16 06:11:00,
2013-06-16 02:22:00,69.0,64.0,-100.00,SE,145,6.0,9.0,84,-99.99,,,-99.99,,2013-06-16 06:22:00,
2013-06-16 02:33:00,69.0,64.0,-100.00,SE,145,6.0,9.0,85,-99.99,,,-99.99,,2013-06-16 06:33:00,
2013-06-16 02:43:00,68.0,64.0,-100.00,South,170,5.0,8.0,86,-99.99,,,-99.99,,2013-06-16 06:43:00,
2013-06-16 02:52:00,68.0,64.0,-100.00,SE,145,8.0,10.0,88,-99.99,,,-99.99,,2013-06-16 06:52:00,
2013-06-16 03:01:00,68.0,64.0,-100.00,SE,145,9.0,14.0,88,-99.99,,,-99.99,,2013-06-16 07:01:00,
2013-06-16 03:12:00,68.0,64.0,-100.00,SSE,150,9.0,13.0,88,-99.99,,,-99.99,,2013-06-16 07:12:00,
2013-06-16 03:22:00,68.0,64.0,-100.00,SSE,150,10.0,12.0,88,-99.99,,,-99.99,,2013-06-16 07:22:00,
2013-06-16 03:33:00,68.0,64.0,-100.00,SSE,160,9.0,12.0,88,-99.99,,,-99.99,,2013-06-16 07:33:00,
2013-06-16 03:43:00,68.0,64.0,-100.00,SSE,150,9.0,12.0,89,-99.99,,,-99.99,,2013-06-16 07:43:00,
2013-06-16 03:53:00,67.0,64.0,-100.00,SSE,150,8.0,11.0,89,-99.99,,,-99.99,,2013-06-16 07:53:00,
2013-06-16 04:02:00,67.0,64.0,-100.00,SSE,160,8.0,12.0,89,-99.99,,,-99.99,,2013-06-16 08:02:00,
2013-06-16 04:12:00,68.0,64.0,-100.00,SSE,160,9.0,14.0,89,-99.99,,,-99.99,,2013-06-16 08:12:00,
2013-06-16 04:22:00,68.0,65.0,-100.00,SSE,160,9.0,12.0,89,-99.99,,,-99.99,,2013-06-16 08:22:00,
2013-06-16 04:33:00,69.0,64.0,-100.00,South,180,11.0,14.0,85,-99.99,,,-99.99,,2013-06-16 08:33:00,
2013-06-16 04:43:00,68.0,66.0,-100.00,SSW,200,19.0,27.0,92,-99.99,,,-99.99,,2013-06-16 08:43:00,
2013-06-16 04:54:00,68.0,66.0,-100.00,WSW,245,14.0,22.0,94,-99.99,,,-99.99,,2013-06-16 08:54:00,
2013-06-16 05:02:00,67.0,66.0,-100.00,WSW,245,10.0,17.0,95,-99.99,,,-99.99,,2013-06-16 09:02:00,
2013-06-16 05:11:00,67.0,66.0,-100.00,SW,215,6.0,11.0,95,-99.99,,,-99.99,,2013-06-16 09:11:00,
2013-06-16 05:22:00,67.0,66.0,-100.00,WSW,240,9.0,11.0,96,-99.99,,,-99.99,,2013-06-16 09:22:00,
2013-06-16 05:33:00,67.0,66.0,-100.00,SW,225,13.0,28.0,98,-99.99,,,-99.99,,2013-06-16 09:33:00,
2013-06-16 05:43:00,67.0,66.0,-100.00,SSW,210,11.0,16.0,97,-99.99,,,-99.99,,2013-06-16 09:43:00,
2013-06-16 05:52:00,66.0,66.0,-100.00,South,190,10.0,16.0,97,-99.99,,,-99.99,,2013-06-16 09:52:00,
2013-06-16 06:02:00,67.0,66.0,-100.00,SSW,210,12.0,18.0,97,-99.99,,,-99.99,,2013-06-16 10:02:00,
2013-06-16 06:12:00,67.0,66.0,-100.00,SW,220,11.0,16.0,96,-99.99,,,-99.99,,2013-06-16 10:12:00,
2013-06-16 06:22:00,67.0,66.0,-100.00,SSW,200,13.0,17.0,95,-99.99,,,-99.99,,2013-06-16 10:22:00,
2013-06-16 06:33:00,68.0,66.0,-100.00,South,180,11.0,17.0,94,-99.99,,,-99.99,,2013-06-16 10:33:00,
2013-06-16 06:43:00,68.0,66.0,-100.00,South,175,13.0,19.0,94,-99.99,,,-99.99,,2013-06-16 10:43:00,
2013-06-16 06:53:00,68.0,66.0,-100.00,South,185,14.0,19.0,94,-99.99,,,-99.99,,2013-06-16 10:53:00,
2013-06-16 07:02:00,68.0,66.0,-100.00,SSW,195,17.0,24.0,93,-99.99,,,-99.99,,2013-06-16 11:02:00,
2013-06-16 07:12:00,68.0,66.0,-100.00,SSW,195,19.0,25.0,91,-99.99,,,-99.99,,2013-06-16 11:12:00,
2013-06-16 07:22:00,68.0,66.0,-100.00,South,185,18.0,24.0,91,-99.99,,,-99.99,,2013-06-16 11:22:00,
2013-06-16 07:34:00,69.0,66.0,-100.00,SSW,195,16.0,25.0,90,-99.99,,,-99.99,,2013-06-16 11:34:00,
2013-06-16 07:43:00,69.0,65.0,-100.00,SSW,200,18.0,22.0,89,-99.99,,,-99.99,,2013-06-16 11:43:00,
2013-06-16 07:52:00,69.0,66.0,-100.00,South,190,16.0,24.0,89,-99.99,,,-99.99,,2013-06-16 11:52:00,
2013-06-16 08:02:00,69.0,66.0,-100.00,South,185,15.0,27.0,89,-99.99,,,-99.99,,2013-06-16 12:02:00,
2013-06-16 08:12:00,69.0,66.0,-100.00,South,185,18.0,22.0,89,-99.99,,,-99.99,,2013-06-16 12:12:00,
2013-06-16 08:22:00,69.0,66.0,-100.00,South,180,14.0,24.0,89,-99.99,,,-99.99,,2013-06-16 12:22:00,
2013-06-16 08:33:00,69.0,66.0,-100.00,South,190,17.0,22.0,88,-99.99,,,-99.99,,2013-06-16 12:33:00,
2013-06-16 08:42:00,69.0,66.0,-100.00,South,190,17.0,22.0,88,-99.99,,,-99.99,,2013-06-16 12:42:00,
2013-06-16 08:53:00,69.0,66.0,-100.00,South,190,17.0,21.0,89,-99.99,,,-99.99,,2013-06-16 12:53:00,
2013-06-16 09:01:00,69.0,66.0,-100.00,SSW,205,14.0,21.0,89,-99.99,,,-99.99,,2013-06-16 13:01:00,
2013-06-16 09:11:00,69.0,66.0,-100.00,SSW,205,17.0,21.0,88,-99.99,,,-99.99,,2013-06-16 13:11:00,
2013-06-16 09:22:00,70.0,66.0,-100.00,SSW,205,15.0,22.0,87,-99.99,,,-99.99,,2013-06-16 13:22:00,
2013-06-16 09:34:00,69.0,65.0,-100.00,SSW,205,16.0,21.0,87,-99.99,,,-99.99,,2013-06-16 13:34:00,
2013-06-16 09:43:00,70.0,66.0,-100.00,SSW,210,19.0,24.0,87,-99.99,,,-99.99,,2013-06-16 13:43:00,
2013-06-16 09:53:00,70.0,66.0,-100.00,SSW,210,13.0,21.0,87,-99.99,,,-99.99,,2013-06-16 13:53:00,
2013-06-16 10:02:00,70.0,66.0,-100.00,SSW,195,13.0,21.0,87,-99.99,,,-99.99,,2013-06-16 14:02:00,
2013-06-16 10:12:00,70.0,66.0,-100.00,SSW,205,13.0,21.0,87,-99.99,,,-99.99,,2013-06-16 14:12:00,
2013-06-16 10:22:00,70.0,65.0,-100.00,SSW,205,20.0,24.0,86,-99.99,,,-99.99,,2013-06-16 14:22:00,
2013-06-16 10:34:00,70.0,65.0,-100.00,SSW,205,20.0,24.0,86,-99.99,,,-99.99,,2013-06-16 14:34:00,
2013-06-16 10:43:00,70.0,65.0,-100.00,SSW,210,17.0,24.0,84,-99.99,,,-99.99,,2013-06-16 14:43:00,
2013-06-16 10:52:00,71.0,66.0,-100.00,SSW,195,15.0,24.0,84,-99.99,,,-99.99,,2013-06-16 14:52:00,
2013-06-16 11:02:00,72.0,66.0,-100.00,SSW,200,17.0,27.0,81,-99.99,,,-99.99,,2013-06-16 15:02:00,
2013-06-16 11:12:00,73.0,67.0,-100.00,SSW,205,19.0,26.0,81,-99.99,,,-99.99,,2013-06-16 15:12:00,
2013-06-16 11:23:00,73.0,66.0,-100.00,SW,215,19.0,26.0,77,-99.99,,,-99.99,,2013-06-16 15:23:00,
2013-06-16 11:34:00,74.0,66.0,-100.00,SW,220,19.0,27.0,76,-99.99,,,-99.99,,2013-06-16 15:34:00,
2013-06-16 11:43:00,73.0,66.0,-100.00,WSW,240,16.0,24.0,77,-99.99,,,-99.99,,2013-06-16 15:43:00,
2013-06-16 11:52:00,74.0,66.0,-100.00,SW,225,20.0,26.0,76,-99.99,,,-99.99,,2013-06-16 15:52:00,
2013-06-16 12:02:00,74.0,66.0,-100.00,SW,225,20.0,26.0,76,-99.99,,,-99.99,,2013-06-16 16:02:00,
2013-06-16 12:12:00,74.0,65.0,-100.00,WSW,240,15.0,24.0,75,-99.99,,,-99.99,,2013-06-16 16:12:00,
2013-06-16 12:23:00,74.0,66.0,-100.00,SW,220,12.0,22.0,75,-99.99,,,-99.99,,2013-06-16 16:23:00,
2013-06-16 12:33:00,74.0,66.0,-100.00,SW,220,16.0,23.0,74,-99.99,,,-99.99,,2013-06-16 16:33:00,
2013-06-16 12:43:00,74.0,65.0,-100.00,SW,235,15.0,22.0,73,-99.99,,,-99.99,,2013-06-16 16:43:00,
2013-06-16 12:53:00,75.0,66.0,-100.00,SW,215,12.0,21.0,73,-99.99,,,-99.99,,2013-06-16 16:53:00,
2013-06-16 13:02:00,75.0,66.0,-100.00,SW,225,14.0,20.0,73,-99.99,,,-99.99,,2013-06-16 17:02:00,
2013-06-16 13:12:00,75.0,65.0,-100.00,SW,235,14.0,23.0,71,-99.99,,,-99.99,,2013-06-16 17:12:00,
2013-06-16 13:22:00,76.0,66.0,-100.00,SW,220,15.0,19.0,71,-99.99,,,-99.99,,2013-06-16 17:22:00,
2013-06-16 13:34:00,76.0,66.0,-100.00,SW,235,14.0,19.0,69,-99.99,,,-99.99,,2013-06-16 17:34:00,
2013-06-16 13:43:00,77.0,66.0,-100.00,SW,230,14.0,20.0,68,-99.99,,,-99.99,,2013-06-16 17:43:00,
2013-06-16 13:53:00,77.0,66.0,-100.00,WSW,240,10.0,21.0,69,-99.99,,,-99.99,,2013-06-16 17:53:00,
2013-06-16 14:02:00,77.0,66.0,-100.00,WSW,240,10.0,21.0,69,-99.99,,,-99.99,,2013-06-16 18:02:00,
2013-06-16 14:12:00,77.0,66.0,-100.00,SW,215,14.0,22.0,67,-99.99,,,-99.99,,2013-06-16 18:12:00,
2013-06-16 14:22:00,78.0,66.0,-100.00,SSW,205,15.0,19.0,67,-99.99,,,-99.99,,2013-06-16 18:22:00,
2013-06-16 14:33:00,79.0,67.0,-100.00,SW,225,12.0,19.0,66,-99.99,,,-99.99,,2013-06-16 18:33:00,
2013-06-16 14:43:00,80.0,67.0,-100.00,SW,230,13.0,21.0,66,-99.99,,,-99.99,,2013-06-16 18:43:00,
2013-06-16 14:52:00,79.0,66.0,-100.00,SW,215,17.0,22.0,64,-99.99,,,-99.99,,2013-06-16 18:52:00,
2013-06-16 15:01:00,79.0,67.0,-100.00,SW,225,13.0,19.0,67,-99.99,,,-99.99,,2013-06-16 19:01:00,
2013-06-16 15:11:00,79.0,67.0,-100.00,SW,225,13.0,19.0,67,-99.99,,,-99.99,,2013-06-16 19:11:00,
2013-06-16 15:22:00,80.0,67.0,-100.00,SW,220,15.0,22.0,64,-99.99,,,-99.99,,2013-06-16 19:22:00,
2013-06-16 15:34:00,80.0,67.0,-100.00,SSW,205,17.0,23.0,64,-99.99,,,-99.99,,2013-06-16 19:34:00,
2013-06-16 15:43:00,81.0,67.0,-100.00,SSW,210,16.0,21.0,63,-99.99,,,-99.99,,2013-06-16 19:43:00,
2013-06-16 15:54:00,81.0,67.0,-100.00,WSW,250,11.0,20.0,63,-99.99,,,-99.99,,2013-06-16 19:54:00,
2013-06-16 16:02:00,80.0,66.0,-100.00,SSW,210,19.0,24.0,61,-99.99,,,-99.99,,2013-06-16 20:02:00,
2013-06-16 16:12:00,80.0,67.0,-100.00,SW,235,15.0,21.0,64,-99.99,,,-99.99,,2013-06-16 20:12:00,
2013-06-16 16:22:00,81.0,68.0,-100.00,SW,230,14.0,20.0,63,-99.99,,,-99.99,,2013-06-16 20:22:00,
2013-06-16 16:33:00,81.0,68.0,-100.00,SW,230,14.0,20.0,63,-99.99,,,-99.99,,2013-06-16 20:33:00,
2013-06-16 16:42:00,81.0,67.0,-100.00,SW,220,12.0,22.0,62,-99.99,,,-99.99,,2013-06-16 20:42:00,
2013-06-16 16:53:00,81.0,67.0,-100.00,SW,220,13.0,20.0,62,-99.99,,,-99.99,,2013-06-16 20:53:00,
2013-06-16 17:02:00,81.0,67.0,-100.00,SSW,205,13.0,21.0,63,-99.99,,,-99.99,,2013-06-16 21:02:00,
2013-06-16 17:11:00,81.0,67.0,-100.00,SSW,205,16.0,24.0,62,-99.99,,,-99.99,,2013-06-16 21:11:00,
2013-06-16 17:22:00,81.0,67.0,-100.00,SW,225,12.0,22.0,63,-99.99,,,-99.99,,2013-06-16 21:22:00,
2013-06-16 17:33:00,81.0,66.0,-100.00,SW,220,16.0,25.0,61,-99.99,,,-99.99,,2013-06-16 21:33:00,
2013-06-16 17:42:00,81.0,67.0,-100.00,SSW,210,14.0,21.0,61,-99.99,,,-99.99,,2013-06-16 21:42:00,
2013-06-16 17:53:00,80.0,66.0,-100.00,SW,220,15.0,21.0,62,-99.99,,,-99.99,,2013-06-16 21:53:00,
2013-06-16 18:01:00,79.0,66.0,-100.00,SW,235,8.0,17.0,64,-99.99,,,-99.99,,2013-06-16 22:01:00,
2013-06-16 18:12:00,80.0,67.0,-100.00,WSW,245,6.0,12.0,64,-99.99,,,-99.99,,2013-06-16 22:12:00,
2013-06-16 18:22:00,80.0,66.0,-100.00,SW,220,12.0,19.0,62,-99.99,,,-99.99,,2013-06-16 22:22:00,
2013-06-16 18:32:00,81.0,65.0,-100.00,SW,220,17.0,23.0,58,-99.99,,,-99.99,,2013-06-16 22:32:00,
2013-06-16 18:42:00,81.0,66.0,-100.00,WSW,250,9.0,21.0,61,-99.99,,,-99.99,,2013-06-16 22:42:00,
2013-06-16 18:52:00,81.0,65.0,-100.00,WSW,240,13.0,19.0,59,-99.99,,,-99.99,,2013-06-16 22:52:00,
2013-06-16 19:02:00,81.0,66.0,-100.00,SW,235,12.0,18.0,59,-99.99,,,-99.99,,2013-06-16 23:02:00,
2013-06-16 19:11:00,80.0,65.0,-100.00,SW,230,11.0,19.0,61,-99.99,,,-99.99,,2013-06-16 23:11:00,
2013-06-16 19:22:00,80.0,66.0,-100.00,SW,225,12.0,17.0,61,-99.99,,,-99.99,,2013-06-16 23:22:00,
2013-06-16 19:32:00,80.0,66.0,-100.00,SW,220,14.0,19.0,62,-99.99,,,-99.99,,2013-06-16 23:32:00,
2013-06-16 19:42:00,79.0,66.0,-100.00,SW,220,11.0,17.0,63,-99.99,,,-99.99,,2013-06-16 23:42:00,
2013-06-16 19:52:00,79.0,66.0,-100.00,SW,235,12.0,17.0,64,-99.99,,,-99.99,,2013-06-16 23:52:00,
2013-06-16 20:02:00,79.0,66.0,-100.00,SW,220,12.0,17.0,64,-99.99,,,-99.99,,2013-06-17 00:02:00,
2013-06-16 20:11:00,79.0,66.0,-100.00,SW,220,13.0,17.0,64,-99.99,,,-99.99,,2013-06-17 00:11:00,
2013-06-16 20:22:00,79.0,66.0,-100.00,SW,225,12.0,19.0,64,-99.99,,,-99.99,,2013-06-17 00:22:00,
2013-06-16 20:32:00,78.0,66.0,-100.00,SW,230,9.0,17.0,66,-99.99,,,-99.99,,2013-06-17 00:32:00,
2013-06-16 20:43:00,78.0,66.0,-100.00,SW,215,11.0,16.0,67,-99.99,,,-99.99,,2013-06-17 00:43:00,
2013-06-16 20:52:00,78.0,65.0,-100.00,SW,215,12.0,17.0,65,-99.99,,,-99.99,,2013-06-17 00:52:00,
2013-06-16 21:02:00,77.0,65.0,-100.00,SW,215,12.0,16.0,65,-99.99,,,-99.99,,2013-06-17 01:02:00,
2013-06-16 21:12:00,76.0,65.0,-100.00,SW,220,10.0,14.0,67,-99.99,,,-99.99,,2013-06-17 01:12:00,
2013-06-16 21:22:00,76.0,65.0,-100.00,SW,220,10.0,14.0,69,-99.99,,,-99.99,,2013-06-17 01:22:00,
2013-06-16 21:32:00,76.0,65.0,-100.00,SW,220,10.0,14.0,69,-99.99,,,-99.99,,2013-06-17 01:32:00,
2013-06-16 21:43:00,75.0,66.0,-100.00,SW,215,9.0,13.0,73,-99.99,,,-99.99,,2013-06-17 01:43:00,
2013-06-16 21:53:00,75.0,66.0,-100.00,SW,220,10.0,13.0,74,-99.99,,,-99.99,,2013-06-17 01:53:00,
2013-06-16 22:02:00,75.0,66.0,-100.00,SSW,210,8.0,13.0,75,-99.99,,,-99.99,,2013-06-17 02:02:00,
2013-06-16 22:12:00,74.0,67.0,-100.00,SW,215,8.0,12.0,78,-99.99,,,-99.99,,2013-06-17 02:12:00,
2013-06-16 22:22:00,73.0,67.0,-100.00,SSW,205,7.0,9.0,81,-99.99,,,-99.99,,2013-06-17 02:22:00,
2013-06-16 22:34:00,73.0,67.0,-100.00,SSW,210,6.0,9.0,82,-99.99,,,-99.99,,2013-06-17 02:34:00,
2013-06-16 22:43:00,73.0,67.0,-100.00,SW,215,6.0,7.0,83,-99.99,,,-99.99,,2013-06-17 02:43:00,
2013-06-16 22:53:00,72.0,68.0,-100.00,SSW,205,6.0,9.0,85,-99.99,,,-99.99,,2013-06-17 02:53:00,
2013-06-16 23:02:00,72.0,68.0,-100.00,SSW,210,6.0,8.0,86,-99.99,,,-99.99,,2013-06-17 03:02:00,
2013-06-16 23:12:00,72.0,67.0,-100.00,SSW,210,5.0,6.0,87,-99.99,,,-99.99,,2013-06-17 03:12:00,
2013-06-16 23:22:00,71.0,67.0,-100.00,SSW,210,6.0,8.0,87,-99.99,,,-99.99,,2013-06-17 03:22:00,
2013-06-16 23:33:00,71.0,67.0,-100.00,SW,220,6.0,7.0,87,-99.99,,,-99.99,,2013-06-17 03:33:00,
2013-06-16 23:44:00,71.0,67.0,-100.00,SW,220,7.0,8.0,87,-99.99,,,-99.99,,2013-06-17 03:44:00,
2013-06-16 23:53:00,71.0,67.0,-100.00,SW,230,7.0,9.0,87,-99.99,,,-99.99,,2013-06-17 03:53:00,